Location: Gebenbach
(49.5378°N, 11.8735°E)
Time: 02:57:44
(UTC+00:00)

Feng Yun 1-1 Rocket - Pass Details

Date: 29 October 2020
Orbit: 829 x 934 km, 99.2° (Epoch: 24 November)

Event Time Altitude Azimuth Distance (km) Brightness Sun altitude
Rises 16:39:58 0° 152° (SSE) 3,566 7.3 -7.8°
Reaches altitude 10° 16:42:23 10° 149° (SSE) 2,633 6.6 -8.2°
Maximum altitude 16:48:13 65° 69° (ENE) 1,023 4.4 -9.2°
Drops below altitude 10° 16:54:05 10° 349° (N) 2,647 6.8 -10.1°
Sets 16:56:32 0° 347° (NNW) 3,588 7.5 -10.5°
